When you browse on this site, cookies collect data to enhance your experience and personalize the content and advertising you see.
Visit our Privacy Policy to learn more. By continuing to use the site, you agree to this use of cookies and data.
  • In Portugal
  • List of Countries
  • For 7 days
  • Water Temperature
  • Satellite Maps
  • Weather Map
  • Weather Widgets
  • user-avatar
    Login

    Hourly Weather Yalga

    Today, 25 June, Tuesday

    Time Temperature Precipitation Wind Pressure Humidity
    00:00 +16°C° 0 mm 3 mps 750 mmHg 85%
    01:00 +14°C° 0 mm 3 mps 750 mmHg 85%
    02:00 +13°C° 0 mm 3 mps 750 mmHg 84%
    03:00 +12°C° 0 mm 3 mps 751 mmHg 83%
    04:00 +13°C° 0 mm 3 mps 751 mmHg 81%
    05:00 +14°C° 0 mm 4 mps 751 mmHg 79%
    06:00 +14°C° 0 mm 4 mps 751 mmHg 76%
    07:00 +17°C° 0 mm 4 mps 752 mmHg 72%
    08:00 +17°C° 0 mm 5 mps 752 mmHg 68%
    09:00 +20°C° 0 mm 5 mps 752 mmHg 63%
    10:00 +20°C° 0 mm 5 mps 752 mmHg 60%
    11:00 +21°C° 0 mm 5 mps 752 mmHg 57%
    12:00 +22°C° 0 mm 4 mps 752 mmHg 54%
    13:00 +22°C° 0 mm 4 mps 753 mmHg 54%
    14:00 +22°C° 0 mm 4 mps 753 mmHg 55%
    15:00 +22°C° 0 mm 4 mps 753 mmHg 56%
    16:00 +21°C° 0 mm 4 mps 753 mmHg 60%
    17:00 +21°C° 0 mm 3 mps 752 mmHg 64%
    18:00 +20°C° 0 mm 3 mps 752 mmHg 68%
    19:00 +19°C° 0 mm 3 mps 753 mmHg 71%
    20:00 +17°C° 0 mm 2 mps 753 mmHg 75%
    21:00 +16°C° 0 mm 2 mps 753 mmHg 78%
    22:00 +15°C° 0 mm 2 mps 753 mmHg 80%
    23:00 +14°C° 0 mm 2 mps 753 mmHg 82%

    Tomorrow, 26 June, Wednesday

    Time Temperature Precipitation Wind Pressure Humidity
    00:00 +13°C° 0 mm 2 mps 752 mmHg 84%
    01:00 +13°C° 0 mm 2 mps 753 mmHg 85%
    02:00 +12°C° 0 mm 2 mps 753 mmHg 87%
    03:00 +12°C° 0 mm 2 mps 753 mmHg 88%
    04:00 +11°C° 0 mm 3 mps 753 mmHg 87%
    05:00 +12°C° 0 mm 3 mps 753 mmHg 85%
    06:00 +12°C° 0 mm 3 mps 753 mmHg 83%
    07:00 +14°C° 0 mm 3 mps 753 mmHg 76%
    08:00 +15°C° 0 mm 4 mps 753 mmHg 70%
    09:00 +18°C° 0 mm 4 mps 753 mmHg 63%
    10:00 +18°C° 0 mm 4 mps 753 mmHg 60%
    11:00 +19°C° 0 mm 4 mps 753 mmHg 58%
    12:00 +19°C° 0 mm 4 mps 752 mmHg 55%
    13:00 +20°C° 0 mm 4 mps 752 mmHg 54%
    14:00 +20°C° 0 mm 4 mps 752 mmHg 54%
    15:00 +20°C° 0 mm 4 mps 752 mmHg 53%
    16:00 +20°C° 0 mm 3 mps 751 mmHg 56%
    17:00 +20°C° 0 mm 2 mps 751 mmHg 59%
    18:00 +19°C° 0 mm 2 mps 750 mmHg 62%
    19:00 +19°C° 0 mm 1 mps 750 mmHg 66%
    20:00 +16°C° 0 mm 1 mps 750 mmHg 70%
    21:00 +14°C° 0 mm 1 mps 749 mmHg 74%
    22:00 +14°C° 0 mm 1 mps 749 mmHg 73%
    23:00 +14°C° 0 mm 1 mps 748 mmHg 73%

    Day after tomorrow, 27 June, Thursday

    Time Temperature Precipitation Wind Pressure Humidity
    00:00 +15°C° 0 mm 1 mps 748 mmHg 72%
    01:00 +14°C° 0.7 mm 2 mps 748 mmHg 79%
    02:00 +14°C° 0.7 mm 2 mps 747 mmHg 87%
    03:00 +13°C° 0.7 mm 2 mps 747 mmHg 94%
    04:00 +13°C° 2.2 mm 2 mps 746 mmHg 95%
    05:00 +13°C° 2.2 mm 2 mps 746 mmHg 96%
    06:00 +14°C° 2.2 mm 2 mps 745 mmHg 98%
    07:00 +14°C° 0.8 mm 2 mps 745 mmHg 97%
    08:00 +14°C° 0.8 mm 2 mps 744 mmHg 97%
    09:00 +14°C° 0.8 mm 2 mps 744 mmHg 96%
    10:00 +15°C° 0.1 mm 2 mps 744 mmHg 94%
    11:00 +16°C° 0.1 mm 2 mps 743 mmHg 92%
    12:00 +16°C° 0.1 mm 2 mps 743 mmHg 89%
    13:00 +16°C° 0.2 mm 2 mps 742 mmHg 90%
    14:00 +16°C° 0.2 mm 3 mps 742 mmHg 91%
    15:00 +16°C° 0.2 mm 3 mps 742 mmHg 91%
    16:00 +14°C° 0.7 mm 4 mps 741 mmHg 93%
    17:00 +14°C° 0.7 mm 4 mps 740 mmHg 95%
    18:00 +14°C° 0.7 mm 5 mps 740 mmHg 96%
    19:00 +14°C° 1.6 mm 5 mps 739 mmHg 96%
    20:00 +14°C° 1.6 mm 5 mps 739 mmHg 96%
    21:00 +14°C° 1.6 mm 6 mps 738 mmHg 96%
    22:00 +15°C° 1.9 mm 6 mps 737 mmHg 96%
    23:00 +15°C° 1.9 mm 6 mps 737 mmHg 97%

    28 June, Friday

    Time Temperature Precipitation Wind Pressure Humidity
    00:00 +15°C° 1.9 mm 6 mps 736 mmHg 97%
    01:00 +15°C° 1.6 mm 7 mps 735 mmHg 96%
    02:00 +16°C° 1.6 mm 7 mps 735 mmHg 96%
    03:00 +16°C° 1.6 mm 8 mps 734 mmHg 96%
    04:00 +16°C° 1.8 mm 7 mps 733 mmHg 95%
    05:00 +15°C° 1.8 mm 7 mps 733 mmHg 95%
    06:00 +15°C° 1.8 mm 7 mps 733 mmHg 95%
    07:00 +16°C° 0.7 mm 7 mps 732 mmHg 95%
    08:00 +16°C° 0.7 mm 7 mps 732 mmHg 94%
    09:00 +16°C° 0.7 mm 7 mps 732 mmHg 94%
    10:00 +16°C° 0.5 mm 7 mps 732 mmHg 93%
    11:00 +17°C° 0.5 mm 7 mps 732 mmHg 93%
    12:00 +17°C° 0.5 mm 7 mps 732 mmHg 92%
    13:00 +17°C° 2 mm 6 mps 732 mmHg 91%
    14:00 +19°C° 2 mm 6 mps 732 mmHg 89%
    15:00 +19°C° 2 mm 5 mps 732 mmHg 87%
    16:00 +19°C° 0.4 mm 4 mps 732 mmHg 86%
    17:00 +19°C° 0.4 mm 4 mps 732 mmHg 85%
    18:00 +20°C° 0.4 mm 4 mps 732 mmHg 83%
    19:00 +18°C° 0 mm 4 mps 732 mmHg 86%
    20:00 +17°C° 0 mm 4 mps 732 mmHg 88%
    21:00 +14°C° 0 mm 4 mps 732 mmHg 91%
    22:00 +13°C° 0 mm 4 mps 732 mmHg 92%
    23:00 +13°C° 0 mm 4 mps 732 mmHg 92%

    29 June, Saturday

    Time Temperature Precipitation Wind Pressure Humidity
    00:00 +12°C° 0 mm 4 mps 733 mmHg 93%
    01:00 +12°C° 0 mm 4 mps 733 mmHg 94%
    02:00 +11°C° 0 mm 4 mps 733 mmHg 95%
    03:00 +11°C° 0 mm 4 mps 733 mmHg 96%
    04:00 +10°C° 0 mm 5 mps 733 mmHg 94%
    05:00 +12°C° 0 mm 5 mps 733 mmHg 92%
    06:00 +11°C° 0 mm 6 mps 733 mmHg 91%
    07:00 +13°C° 0.1 mm 6 mps 734 mmHg 88%
    08:00 +13°C° 0.1 mm 5 mps 734 mmHg 85%
    09:00 +14°C° 0.1 mm 5 mps 734 mmHg 82%
    10:00 +15°C° 0.3 mm 5 mps 735 mmHg 80%
    11:00 +16°C° 0.3 mm 6 mps 735 mmHg 78%
    12:00 +17°C° 0.3 mm 6 mps 736 mmHg 76%
    13:00 +17°C° 0.4 mm 5 mps 736 mmHg 76%
    14:00 +17°C° 0.4 mm 5 mps 736 mmHg 76%
    15:00 +17°C° 0.4 mm 5 mps 736 mmHg 76%
    16:00 +18°C° 0.5 mm 4 mps 736 mmHg 78%
    17:00 +18°C° 0.5 mm 4 mps 737 mmHg 79%
    18:00 +17°C° 0.5 mm 3 mps 737 mmHg 81%
    19:00 +16°C° 0.1 mm 3 mps 737 mmHg 85%
    20:00 +13°C° 0.1 mm 3 mps 737 mmHg 89%
    21:00 +12°C° 0.1 mm 3 mps 738 mmHg 92%
    22:00 +11°C° 0 mm 3 mps 738 mmHg 93%
    23:00 +10°C° 0 mm 3 mps 738 mmHg 93%

    30 June, Sunday

    Time Temperature Precipitation Wind Pressure Humidity
    00:00 +9°C° 0 mm 3 mps 738 mmHg 93%
    01:00 +8°C° 0 mm 2 mps 738 mmHg 93%
    02:00 +8°C° 0 mm 2 mps 739 mmHg 94%
    03:00 +7°C° 0 mm 2 mps 739 mmHg 95%
    04:00 +8°C° 0 mm 2 mps 739 mmHg 93%
    05:00 +9°C° 0 mm 2 mps 739 mmHg 92%
    06:00 +9°C° 0 mm 2 mps 740 mmHg 91%
    07:00 +11°C° 0 mm 3 mps 740 mmHg 86%
    08:00 +12°C° 0 mm 3 mps 740 mmHg 80%
    09:00 +13°C° 0 mm 4 mps 740 mmHg 75%
    10:00 +14°C° 0 mm 4 mps 740 mmHg 71%
    11:00 +15°C° 0 mm 4 mps 741 mmHg 68%
    12:00 +17°C° 0 mm 4 mps 741 mmHg 64%
    13:00 +18°C° 0 mm 4 mps 741 mmHg 63%
    14:00 +18°C° 0 mm 4 mps 741 mmHg 62%
    15:00 +18°C° 0 mm 4 mps 741 mmHg 62%
    16:00 +18°C° 0 mm 4 mps 741 mmHg 65%
    17:00 +17°C° 0 mm 3 mps 741 mmHg 68%
    18:00 +17°C° 0 mm 3 mps 742 mmHg 70%
    19:00 +14°C° 0 mm 3 mps 742 mmHg 78%
    20:00 +13°C° 0 mm 2 mps 742 mmHg 85%
    21:00 +10°C° 0 mm 2 mps 742 mmHg 92%
    22:00 +10°C° 0 mm 2 mps 743 mmHg 92%
    23:00 +10°C° 0 mm 1 mps 743 mmHg 92%
    Show more